This demonstration page uses our WeatherBlox Daily Observations layout. Learn more.

Left ArrowRight Arrow

Hourly Observations for May 16, 2021

Temp ( °F °C ) Dew Point ( °F °C ) Humidity (%) Winds ( mph kmh ) Pressure ( in mb ) Visibility ( mi km ) Precip ( " mm )
12:56 am 00:56 Cloudy 64 17.8 58 14.4 81 81 ESE 9 15 29.96 1015 10 16 0.00 0.00
1:56 am 01:56 Cloudy 62 16.7 59 15 90 90 NNE 3 6 29.97 1015 10 16 0.00 0.00
2:56 am 02:56 Cloudy 62 16.7 58 14.4 86 86 NE 8 13 29.95 1014 10 16 0.00 0.00
3:56 am 03:56 Cloudy 61 16.1 58 14.4 90 90 ENE 9 15 29.94 1014 10 16 0.00 0.00
4:56 am 04:56 Cloudy with Light Rain 60 15.6 58 14.4 93 93 E 6 9 29.95 1014 10 16 0.00 0.00
5:03 am 05:03 Cloudy with Rain 61 16 57 14 88 88 ESE 6 9 29.95 1014 8 13 0.01 0.25
5:17 am 05:17 Cloudy with Light Rain 61 16 57 14 88 88 SE 8 13 29.95 1014 8 13 0.03 0.76
5:56 am 05:56 Cloudy with Light Rain 60 15.6 58 14.4 93 93 ESE 10 17 29.94 1014 6 10 0.13 3.30
6:11 am 06:11 Cloudy with Rain 59 15 57 14 94 94 ESE 12 19 29.95 1014 4 6 0.07 1.78
6:52 am 06:52 Cloudy with Rain 59 15 57 14 94 94 SSE 9 15 29.97 1015 2 3 0.25 6.35
6:56 am 06:56 Cloudy with Rain 59 15 58 14.4 96 96 SE 12 19 29.97 1015 3 4 0.27 6.86
7:08 am 07:08 Cloudy with Rain 59 15 57 14 94 94 SE 10 17 29.97 1015 3 5 0.06 1.52
7:56 am 07:56 Cloudy with Light Rain 59 15 58 14.4 96 96 SE 21 33 29.91 1013 5 8 0.21 5.33
8:00 am 08:00 Cloudy with Light Rain 59 15 57 14 94 94 SE 23 37 29.91 1013 6 10 0.01 0.25
8:56 am 08:56 Cloudy 59 15 57 13.9 93 93 SE 12 19 29.93 1014 10 16 0.03 0.76
9:56 am 09:56 Cloudy with Light Rain 59 15 58 14.4 96 96 S 12 19 29.96 1015 10 16 0.01 0.25
10:05 am 10:05 Cloudy with Light Rain 59 15 57 14 94 94 SSE 16 26 29.95 1014 10 16 0.00 0.00
10:22 am 10:22 Cloudy with Light Rain 59 15 57 14 94 94 S 14 22 29.96 1014 10 16 0.02 0.51
10:34 am 10:34 Cloudy with Light Rain 59 15 57 14 94 94 S 15 24 29.96 1014 10 16 0.02 0.51
10:56 am 10:56 Cloudy with Light Rain 59 15 58 14.4 96 96 SSW 12 19 29.97 1015 10 16 0.02 0.51
11:07 am 11:07 Cloudy with Light Rain 59 15 57 14 94 94 SSW 9 15 29.98 1015 10 16 0.02 0.51
11:25 am 11:25 Cloudy with Light Rain 59 15 57 14 94 94 SSW 8 13 29.98 1015 10 16 0.00 0.00
11:56 am 11:56 Cloudy with Light Rain 60 15.6 59 15 96 96 S 13 20 29.96 1015 10 16 0.06 1.52
12:53 pm 12:53 Mostly Cloudy 64 18 61 16 88 88 SSE 10 17 29.91 1013 10 16 0.00 0.00
12:56 pm 12:56 Mostly Cloudy 64 17.8 60 15.6 87 87 SSE 10 17 29.94 1014 10 16 0.00 0.00
1:56 pm 13:56 Cloudy 66 18.9 60 15.6 81 81 ESE 3 6 29.95 1014 10 16 0.00 0.00
2:07 pm 14:07 Cloudy 66 19 61 16 83 83 ESE 8 13 29.90 1013 10 16 0.00 0.00
2:56 pm 14:56 Cloudy 67 19.4 61 16.1 81 81 E 12 19 29.93 1014 10 16 0.00 0.00
3:18 pm 15:18 Cloudy 66 19 61 16 83 83 E 12 19 29.90 1013 10 16 0.00 0.00
3:56 pm 15:56 Cloudy 68 20 60 15.6 76 76 ESE 13 20 29.92 1013 10 16 0.00 0.00
4:56 pm 16:56 Partly Cloudy 69 20.6 60 15.6 73 73 ESE 15 24 29.91 1013 10 16 0.00 0.00
5:03 pm 17:03 Mostly Cloudy 70 21 61 16 73 73 ESE 12 19 29.86 1011 10 16 0.00 0.00
5:10 pm 17:10 Mostly Cloudy 70 21 61 16 73 73 E 13 20 29.86 1011 10 16 0.00 0.00
5:18 pm 17:18 Cloudy 68 20 61 16 78 78 E 12 19 29.87 1011 10 16 0.00 0.00
5:30 pm 17:30 Cloudy 70 21 61 16 73 73 E 13 20 29.86 1011 10 16 0.00 0.00
5:56 pm 17:56 Cloudy 69 20.6 60 15.6 73 73 E 13 20 29.91 1013 10 16 0.00 0.00
6:56 pm 18:56 Cloudy 66 18.9 60 15.6 81 81 E 14 22 29.92 1013 10 16 0.00 0.00
7:56 pm 19:56 Cloudy 64 17.8 60 15.6 87 87 E 14 22 29.92 1013 10 16 0.00 0.00
8:56 pm 20:56 Mostly Cloudy 62 16.7 59 15 90 90 E 15 24 29.93 1014 10 16 0.00 0.00
9:21 pm 21:21 Mostly Cloudy 63 17 57 14 83 83 ESE 13 20 29.92 1013 10 16 0.00 0.00
9:54 pm 21:54 Cloudy 61 16 57 14 88 88 ESE 14 22 29.93 1013 10 16 0.00 0.00
9:56 pm 21:56 Cloudy 61 16.1 58 14.4 90 90 ESE 16 26 29.96 1014 10 16 0.00 0.00
10:03 pm 22:03 Cloudy 61 16 57 14 88 88 ESE 16 26 29.94 1014 10 16 0.00 0.00
10:56 pm 22:56 Cloudy 60 15.6 58 14.4 93 93 ESE 12 19 29.97 1015 10 16 0.00 0.00
11:56 pm 23:56 Cloudy 59 15 57 13.9 93 93 E 9 15 29.98 1015 10 16 0.00 0.00

Powered by AerisWeather